Regional Weather Roundup
Issued by NWS

Home | Current Version | Previous Version | Text Only | Print | Product List | Glossary On
Versions: 1 2 3 4 5 6 7 8 9 10 11 12 13 14 15 16 17 18 19 20 21 22 23 24 25 26 27 28 29 30 31 32 33 34 35 36 37 38 39 40 41 42 43 44 45 46 47 48 49 50
000
ASCA42 TJSJ 251310
RWRPR
PUERTO RICO/U.S. VIRGIN ISLANDS HOURLY WEATHER ROUNDUP
NATIONAL WEATHER SERVICE SAN JUAN PR
900 AM AST WED MAY 25 2016

PRZ001-004-251400-
PUERTO RICO

CITY           SKY/WX    TMP DP  RH WIND       PRES   REMARKS
SAN JUAN LMM   MOSUNNY   84  75  74 E14       30.09F HX  92
PONCE          MOSUNNY   88  72  58 SE9       30.05F HX  94
AGUADILLA      SUNNY     82  72  69 E14       30.09
CEIBA          SUNNY     82  72  69 E8        30.12S
$$

PRZ006-007-251400-
U.S. VIRGIN ISLANDS

CITY           SKY/WX    TMP DP  RH WIND       PRES   REMARKS
CHARLOTTE AMA  MOSUNNY   86  73  66 NE9       30.09S HX  93
CHRISTIANSTED  PTSUNNY   84  72  65 E15       30.10S
$$

HOURLY WEATHER ROUNDUP FOR THE NEWS MEDIA

CITY           SKY/WX    TMP DP  RH WIND       PRES   REMARKS
ORLANDO        SUNNY     79  66  64 E9        30.21R
NEW YORK       MOSUNNY   73  50  44 W7        30.08R
NEWARK         MOSUNNY   73  52  47 W8        30.07S
CHICAGO        MOSUNNY   72  63  73 S7        30.01R
HARTFORD       SUNNY     65  58  78 SW9       30.01S
BOSTON         MOSUNNY   62  56  80 SW3       30.00F
DALLAS         CLOUDY    78  72  81 S15       29.97R
PHILADELPHIA   MOSUNNY   70  53  54 SW6       30.12R
LOS ANGELES    MOCLDY    57  50  77 CALM      30.05R
WASHINGTON DC  FAIR      71  55  56 NW3       30.18R


USA.gov is the U.S. government's official web portal to all federal, state and local government web resources and services.